Back to catalog

IRIDIUM 47 DEB

AlivePO
NORAD 40255·DEBRIS·🇺🇸 United States

Launched Dec 20, 1997 from Vandenberg Space Force Base

Loading…

Next Passes (next 24 hours)

TLE

FreshSource: Space-Track

Epoch: Sep 14, 2026, 11:27 UTC

1 40255U 97082Q   26257.47775312  .00004026  00000-0  10702-2 0  9994
2 40255  86.2736 321.8115 0124866 316.6181  42.5242 14.43829005617283

Track IRIDIUM 47 DEB in real time with AllMySat

Download on the App Store